• In Czech Republic
  • List of Countries
  • For 7 days
  • Water Temperature
  • Satellite Maps
  • Weather Map
  • Weather Widgets
  • user-avatar
    Login

    Hourly Weather Ziolkowo

    Today, 20 September, Thursday

    Time Temperature Precipitation Wind Pressure Humidity
    00:00 +18°C° 0 mm 1 mps 748 mmHg 86%
    01:00 +18°C° 0 mm 1 mps 748 mmHg 86%
    02:00 +16°C° 0 mm 1 mps 748 mmHg 87%
    03:00 +16°C° 0 mm 1 mps 748 mmHg 88%
    04:00 +16°C° 0 mm 1 mps 748 mmHg 88%
    05:00 +16°C° 0 mm 1 mps 748 mmHg 89%
    06:00 +18°C° 0 mm 1 mps 748 mmHg 86%
    07:00 +17°C° 0 mm 2 mps 748 mmHg 83%
    08:00 +18°C° 0 mm 2 mps 749 mmHg 80%
    09:00 +21°C° 0 mm 2 mps 749 mmHg 72%
    10:00 +24°C° 0 mm 2 mps 749 mmHg 64%
    11:00 +26°C° 0 mm 3 mps 749 mmHg 55%
    12:00 +27°C° 0 mm 3 mps 749 mmHg 53%
    13:00 +28°C° 0 mm 3 mps 749 mmHg 50%
    14:00 +28°C° 0 mm 3 mps 749 mmHg 48%
    15:00 +28°C° 0 mm 3 mps 748 mmHg 51%
    16:00 +27°C° 0 mm 2 mps 748 mmHg 54%
    17:00 +27°C° 0 mm 2 mps 748 mmHg 57%
    18:00 +25°C° 0 mm 2 mps 748 mmHg 61%
    19:00 +24°C° 0 mm 2 mps 748 mmHg 65%
    20:00 +21°C° 0 mm 2 mps 748 mmHg 68%
    21:00 +21°C° 0 mm 2 mps 748 mmHg 70%
    22:00 +20°C° 0 mm 2 mps 748 mmHg 72%
    23:00 +20°C° 0 mm 3 mps 748 mmHg 73%

    Tomorrow, 21 September, Friday

    Time Temperature Precipitation Wind Pressure Humidity
    00:00 +19°C° 0 mm 2 mps 748 mmHg 75%
    01:00 +19°C° 0 mm 2 mps 748 mmHg 76%
    02:00 +18°C° 0 mm 2 mps 748 mmHg 78%
    03:00 +18°C° 0 mm 3 mps 747 mmHg 79%
    04:00 +18°C° 0 mm 3 mps 747 mmHg 80%
    05:00 +17°C° 0 mm 3 mps 747 mmHg 81%
    06:00 +18°C° 0 mm 3 mps 747 mmHg 77%
    07:00 +18°C° 0 mm 3 mps 747 mmHg 74%
    08:00 +19°C° 0 mm 4 mps 747 mmHg 70%
    09:00 +21°C° 0 mm 4 mps 747 mmHg 64%
    10:00 +23°C° 0 mm 5 mps 747 mmHg 57%
    11:00 +25°C° 0 mm 5 mps 746 mmHg 50%
    12:00 +26°C° 0 mm 6 mps 746 mmHg 47%
    13:00 +26°C° 0 mm 6 mps 745 mmHg 44%
    14:00 +27°C° 0 mm 6 mps 745 mmHg 41%
    15:00 +26°C° 0 mm 6 mps 744 mmHg 44%
    16:00 +26°C° 0 mm 5 mps 744 mmHg 48%
    17:00 +25°C° 0 mm 5 mps 743 mmHg 51%
    18:00 +23°C° 0 mm 5 mps 742 mmHg 53%
    19:00 +22°C° 0 mm 5 mps 742 mmHg 55%
    20:00 +21°C° 0 mm 6 mps 741 mmHg 57%
    21:00 +21°C° 0 mm 6 mps 741 mmHg 57%
    22:00 +21°C° 0 mm 6 mps 741 mmHg 57%
    23:00 +21°C° 0 mm 6 mps 741 mmHg 57%

    Day after tomorrow, 22 September, Saturday

    Time Temperature Precipitation Wind Pressure Humidity
    00:00 +19°C° 0.1 mm 6 mps 741 mmHg 63%
    01:00 +17°C° 0.1 mm 6 mps 742 mmHg 68%
    02:00 +15°C° 0.1 mm 6 mps 742 mmHg 74%
    03:00 +14°C° 0.3 mm 5 mps 743 mmHg 78%
    04:00 +13°C° 0.3 mm 4 mps 743 mmHg 83%
    05:00 +11°C° 0.3 mm 4 mps 744 mmHg 88%
    06:00 +12°C° 0 mm 4 mps 744 mmHg 84%
    07:00 +12°C° 0 mm 4 mps 744 mmHg 80%
    08:00 +12°C° 0 mm 5 mps 745 mmHg 77%
    09:00 +13°C° 0 mm 6 mps 745 mmHg 69%
    10:00 +14°C° 0 mm 6 mps 745 mmHg 61%
    11:00 +15°C° 0 mm 7 mps 745 mmHg 53%
    12:00 +15°C° 0 mm 7 mps 745 mmHg 51%
    13:00 +16°C° 0 mm 7 mps 745 mmHg 49%
    14:00 +16°C° 0 mm 6 mps 745 mmHg 47%
    15:00 +16°C° 0.2 mm 6 mps 745 mmHg 50%
    16:00 +15°C° 0.2 mm 5 mps 745 mmHg 53%
    17:00 +15°C° 0.2 mm 4 mps 744 mmHg 57%
    18:00 +13°C° 0.1 mm 4 mps 745 mmHg 63%
    19:00 +12°C° 0.1 mm 3 mps 745 mmHg 70%
    20:00 +10°C° 0.1 mm 2 mps 745 mmHg 77%
    21:00 +10°C° 0 mm 3 mps 745 mmHg 77%
    22:00 +10°C° 0 mm 3 mps 745 mmHg 78%
    23:00 +8°C° 0 mm 4 mps 745 mmHg 78%

    23 September, Sunday

    Time Temperature Precipitation Wind Pressure Humidity
    00:00 +8°C° 0 mm 4 mps 745 mmHg 79%
    01:00 +8°C° 0 mm 4 mps 745 mmHg 79%
    02:00 +8°C° 0 mm 4 mps 745 mmHg 80%
    03:00 +8°C° 0 mm 4 mps 745 mmHg 80%
    04:00 +7°C° 0 mm 5 mps 745 mmHg 80%
    05:00 +7°C° 0 mm 5 mps 745 mmHg 80%
    06:00 +7°C° 0 mm 5 mps 745 mmHg 78%
    07:00 +8°C° 0 mm 6 mps 745 mmHg 76%
    08:00 +8°C° 0 mm 6 mps 745 mmHg 73%
    09:00 +10°C° 0 mm 6 mps 745 mmHg 68%
    10:00 +11°C° 0 mm 7 mps 745 mmHg 63%
    11:00 +12°C° 0 mm 7 mps 745 mmHg 58%
    12:00 +14°C° 0 mm 7 mps 745 mmHg 55%
    13:00 +14°C° 0 mm 7 mps 745 mmHg 52%
    14:00 +15°C° 0 mm 6 mps 745 mmHg 49%
    15:00 +15°C° 0 mm 5 mps 744 mmHg 51%
    16:00 +14°C° 0 mm 4 mps 744 mmHg 52%
    17:00 +14°C° 0 mm 3 mps 744 mmHg 53%
    18:00 +13°C° 0 mm 3 mps 744 mmHg 56%
    19:00 +12°C° 0 mm 2 mps 743 mmHg 60%
    20:00 +10°C° 0 mm 2 mps 743 mmHg 63%
    21:00 +10°C° 0 mm 2 mps 742 mmHg 61%
    22:00 +10°C° 0 mm 3 mps 742 mmHg 59%
    23:00 +10°C° 0 mm 3 mps 741 mmHg 57%

    24 September, Monday

    Time Temperature Precipitation Wind Pressure Humidity
    00:00 +10°C° 0.4 mm 4 mps 740 mmHg 64%
    01:00 +10°C° 0.4 mm 4 mps 739 mmHg 72%
    02:00 +9°C° 0.4 mm 5 mps 738 mmHg 80%
    03:00 +8°C° 1 mm 6 mps 736 mmHg 84%
    04:00 +8°C° 1 mm 7 mps 734 mmHg 87%
    05:00 +8°C° 1 mm 7 mps 732 mmHg 91%
    06:00 +9°C° 3.1 mm 7 mps 731 mmHg 91%
    07:00 +9°C° 3.1 mm 7 mps 730 mmHg 92%
    08:00 +9°C° 3.1 mm 7 mps 729 mmHg 92%
    09:00 +10°C° 1.3 mm 7 mps 728 mmHg 91%
    10:00 +11°C° 1.3 mm 7 mps 727 mmHg 89%
    11:00 +13°C° 1.3 mm 6 mps 726 mmHg 88%
    12:00 +13°C° 0.7 mm 6 mps 725 mmHg 87%
    13:00 +13°C° 0.7 mm 5 mps 724 mmHg 86%
    14:00 +13°C° 0.7 mm 5 mps 724 mmHg 85%
    15:00 +12°C° 0.6 mm 4 mps 723 mmHg 87%
    16:00 +12°C° 0.6 mm 4 mps 723 mmHg 89%
    17:00 +12°C° 0.6 mm 3 mps 723 mmHg 91%
    18:00 +11°C° 0.7 mm 4 mps 723 mmHg 92%
    19:00 +10°C° 0.7 mm 5 mps 724 mmHg 92%
    20:00 +9°C° 0.7 mm 6 mps 724 mmHg 93%
    21:00 +7°C° 1.1 mm 8 mps 726 mmHg 91%
    22:00 +7°C° 1.1 mm 10 mps 727 mmHg 88%
    23:00 +5°C° 1.1 mm 12 mps 729 mmHg 85%

    25 September, Tuesday

    Time Temperature Precipitation Wind Pressure Humidity
    00:00 +6°C° 0.2 mm 11 mps 731 mmHg 84%
    01:00 +6°C° 0.2 mm 11 mps 732 mmHg 83%
    02:00 +6°C° 0.2 mm 10 mps 734 mmHg 81%
    03:00 +5°C° 0.1 mm 9 mps 735 mmHg 82%
    04:00 +5°C° 0.1 mm 9 mps 736 mmHg 82%
    05:00 +5°C° 0.1 mm 8 mps 737 mmHg 82%
    06:00 +5°C° 0.1 mm 8 mps 738 mmHg 79%
    07:00 +5°C° 0.1 mm 8 mps 739 mmHg 76%
    08:00 +6°C° 0.1 mm 8 mps 740 mmHg 74%
    09:00 +6°C° 0.1 mm 8 mps 741 mmHg 68%
    10:00 +7°C° 0.1 mm 9 mps 742 mmHg 63%
    11:00 +8°C° 0.1 mm 9 mps 742 mmHg 58%
    12:00 +8°C° 0.3 mm 9 mps 743 mmHg 59%
    13:00 +8°C° 0.3 mm 9 mps 743 mmHg 60%
    14:00 +8°C° 0.3 mm 9 mps 744 mmHg 62%
    15:00 +7°C° 0.2 mm 9 mps 745 mmHg 63%
    16:00 +7°C° 0.2 mm 8 mps 745 mmHg 65%
    17:00 +6°C° 0.2 mm 8 mps 746 mmHg 67%
    18:00 +6°C° 0 mm 7 mps 746 mmHg 68%
    19:00 +5°C° 0 mm 6 mps 747 mmHg 70%
    20:00 +4°C° 0 mm 6 mps 748 mmHg 72%
    21:00 +5°C° 0 mm 5 mps 748 mmHg 73%
    22:00 +5°C° 0 mm 5 mps 749 mmHg 74%
    23:00 +3°C° 0 mm 5 mps 749 mmHg 75%
    Show more